STARLINK-37197, 68389

Orbit data source: Space-Track

STARLINK-37197, 68389 is a payload satellite owned by SpaceX/Seattle (US) in SSO that was launched on Thu, 26 Mar 2026 UTC via an FALCON 9 launch vehicle from the Air Force Western Test Range (AFWTR). Payload-class satellites include a variety of spacecraft equipped with specific instruments for various scientific and technological missions. These include communications satellites like Starlink; space stations such as the ISS; scientific satellites like the Hubble; Earth observation satellites from companies like Planet Labs, Umbra, and HawkEye 360; GPS; miniature CubeSats for education and research; and military/defense satellites.

Loading next visibility...
Identifier
68389, 2026-063K
Orbit
SSO
Country
Flag of USUS
Related business
Manufacturer
SpaceX/Seattle
Mission
Operational spacecraft
Bus & Motor
STARLINK V2MO, Unknown motor
Mass
575 kg wet, ~530 kg dry
Launch date (UTC)
2026-03-26 (2 weeks ago)
Launch vehicle
FALCON 9
Launch site
Air Force Western Test Range (AFWTR)
Object type
Payload
Rocket body
Debris
Shape & HBR
Unknown shape, 17.7 m
Radar Cross Section
RCS unknown

Expand to show TLE details & history
Last TLE update: 7 hours ago

TLE from 7 hours ago
0 STARLINK-37197
1 68389U 26063K   26102.25002315 -.00103737  00000-0 -70214-3 0  9990
2 68389  97.2849 243.6413 0001515  87.8445 197.8415 15.75220485  3856
Epoch: 2026-04-12T06:00Z
TLE epoch observation values (Epoch: 2026-04-12T06:00:02.000Z)
Latitude
-72.8828°
Longitude
-22.44596°
Altitude
371.826 km
Speed
7.684 km/s
True Right ascension
17h 52m 04s
True Declination
-72° 46' 49"
Sunlit
Object was in daylight at epoch
Visualization orbit readout
Latitude
Unknown
Longitude
Unknown
Altitude
Unknown
Speed
Unknown
Apparent Right ascension
Unknown
Apparent Declination
Unknown
Sunlit
N/A
Visualization observer readout
Local Sidereal Time
19:17:47
Azimuth
Unknown
Elevation
Unknown
Doppler factor
Unknown
Orbital elements
Apogee altitude
341.909 km
Perigee altitude
339.873 km
Semi-major axis
6,719.028 km
Eccentricity
0.00015
Inclination
97.2849°
RAAN
243.6413°
Arg. of periapsis
87.8445°
True anomaly
197.83618°
Mean anomaly
197.8415°
Eccentric anomaly
197.83884°
Mean motion
3.94079 °/min
Orbital period
91.35 mins
BSTAR
-0.00070214
Loading maneuver chart data...
Computing Atmospheric mass density...
Loading historical data...
Loading historical data...
Loading historical data...
Loading historical data...
Loading historical data...
Loading historical data...
Loading historical data...

Documentation

Showing up to 5 results
|